Time,TemperatureF,DewpointF,PressureIn,WindDirection,WindDirectionDegrees,WindSpeedMPH,WindSpeedGustMPH,Humidity,HourlyPrecipIn,Conditions,Clouds,dailyrainin,SoftwareType,DateUTC
2013-01-21 00:00:00,32.3,14.3,30.05,West,270,0.0,0.0,47,0.00,,OVC,0.00,VWS V14.00,2013-01-21 05:00:00,
2013-01-21 00:02:00,32.3,14.3,30.05,West,270,0.0,0.0,47,0.00,,OVC,0.00,VWS V14.00,2013-01-21 05:02:00,
2013-01-21 00:03:00,32.1,14.2,30.05,WNW,292,0.0,0.0,47,0.00,,OVC,0.00,VWS V14.00,2013-01-21 05:03:00,
2013-01-21 00:08:00,32.1,14.6,30.05,West,270,0.0,0.0,48,0.00,,OVC,0.00,VWS V14.00,2013-01-21 05:08:00,
2013-01-21 00:13:00,32.1,14.2,30.05,West,270,0.0,0.0,47,0.00,,OVC,0.00,VWS V14.00,2013-01-21 05:13:00,
2013-01-21 00:18:00,32.1,14.6,30.05,WNW,292,0.0,0.0,48,0.00,,OVC,0.00,VWS V14.00,2013-01-21 05:18:00,
2013-01-21 00:23:00,32.0,14.6,30.05,NNW,338,0.0,0.0,48,0.00,,OVC,0.00,VWS V14.00,2013-01-21 05:23:00,
2013-01-21 00:28:00,31.8,14.4,30.05,WNW,292,0.6,0.6,48,0.00,,OVC,0.00,VWS V14.00,2013-01-21 05:28:00,
2013-01-21 00:33:00,31.6,14.2,30.05,NW,315,0.0,0.0,48,0.00,,OVC,0.00,VWS V14.00,2013-01-21 05:33:00,
2013-01-21 00:38:00,31.6,14.2,30.05,ENE,68,0.0,0.0,48,0.00,,OVC,0.00,VWS V14.00,2013-01-21 05:38:00,
2013-01-21 00:43:00,31.2,13.8,30.06,NW,315,0.0,0.0,48,0.00,,OVC,0.00,VWS V14.00,2013-01-21 05:43:00,
2013-01-21 00:48:00,31.2,14.3,30.06,West,270,0.0,0.0,49,0.00,,OVC,0.00,VWS V14.00,2013-01-21 05:48:00,
2013-01-21 00:53:00,31.2,14.3,30.06,WNW,292,0.0,0.0,49,0.00,,OVC,0.00,VWS V14.00,2013-01-21 05:53:00,
2013-01-21 00:58:00,31.2,14.3,30.07,NW,315,0.0,0.0,49,0.00,,OVC,0.00,VWS V14.00,2013-01-21 05:58:00,
2013-01-21 01:03:00,31.1,14.6,30.07,WNW,292,0.0,0.0,50,0.00,,OVC,0.00,VWS V14.00,2013-01-21 06:03:00,
2013-01-21 01:08:00,30.9,14.9,30.07,WNW,292,0.0,0.0,51,0.00,,OVC,0.00,VWS V14.00,2013-01-21 06:08:00,
2013-01-21 01:13:00,30.9,14.5,30.07,NW,315,0.0,0.0,50,0.00,,OVC,0.00,VWS V14.00,2013-01-21 06:13:00,
2013-01-21 01:18:00,30.9,14.5,30.07,NNW,338,0.0,0.0,50,0.00,,OVC,0.00,VWS V14.00,2013-01-21 06:18:00,
2013-01-21 01:23:00,30.7,14.3,30.07,North,0,0.0,0.0,50,0.00,,OVC,0.00,VWS V14.00,2013-01-21 06:23:00,
2013-01-21 01:28:00,30.7,14.3,30.07,North,0,0.0,0.0,50,0.00,,OVC,0.00,VWS V14.00,2013-01-21 06:28:00,
2013-01-21 01:33:00,30.5,14.1,30.08,North,0,0.0,0.0,50,0.00,,OVC,0.00,VWS V14.00,2013-01-21 06:33:00,
2013-01-21 01:38:00,30.3,13.9,30.08,North,0,0.0,0.0,50,0.00,,OVC,0.00,VWS V14.00,2013-01-21 06:38:00,
2013-01-21 01:43:00,30.2,13.8,30.08,North,0,0.0,0.0,50,0.00,,OVC,0.00,VWS V14.00,2013-01-21 06:43:00,
2013-01-21 01:48:00,30.2,13.8,30.08,NNE,22,0.0,0.0,50,0.00,,OVC,0.00,VWS V14.00,2013-01-21 06:48:00,
2013-01-21 01:53:00,30.0,13.6,30.08,West,270,0.0,0.0,50,0.00,,OVC,0.00,VWS V14.00,2013-01-21 06:53:00,
2013-01-21 01:58:00,30.0,14.1,30.08,NNW,338,0.0,0.0,51,0.00,,OVC,0.00,VWS V14.00,2013-01-21 06:58:00,
2013-01-21 02:03:00,30.0,14.1,30.08,West,270,0.0,0.0,51,0.00,,OVC,0.00,VWS V14.00,2013-01-21 07:03:00,
2013-01-21 02:08:00,29.8,13.9,30.08,NW,315,0.0,0.0,51,0.00,,OVC,0.00,VWS V14.00,2013-01-21 07:08:00,
2013-01-21 02:13:00,29.8,13.9,30.09,NW,315,0.0,0.0,51,0.00,,OVC,0.00,VWS V14.00,2013-01-21 07:13:00,
2013-01-21 02:18:00,29.8,14.3,30.09,WNW,292,0.0,0.0,52,0.00,,OVC,0.00,VWS V14.00,2013-01-21 07:18:00,
2013-01-21 02:23:00,29.6,13.7,30.09,WSW,248,0.0,0.0,51,0.00,,OVC,0.00,VWS V14.00,2013-01-21 07:23:00,
2013-01-21 02:28:00,29.6,13.7,30.09,WNW,292,0.0,0.0,51,0.00,,OVC,0.00,VWS V14.00,2013-01-21 07:28:00,
2013-01-21 02:33:00,29.4,13.5,30.09,NNW,338,0.0,0.0,51,0.00,,OVC,0.00,VWS V14.00,2013-01-21 07:33:00,
2013-01-21 02:38:00,29.4,13.5,30.08,NW,315,0.0,0.0,51,0.00,,OVC,0.00,VWS V14.00,2013-01-21 07:38:00,
2013-01-21 02:43:00,29.4,13.5,30.08,WNW,292,0.0,0.0,51,0.00,,OVC,0.00,VWS V14.00,2013-01-21 07:43:00,
2013-01-21 02:48:00,29.3,13.4,30.09,North,0,0.0,0.0,51,0.00,,OVC,0.00,VWS V14.00,2013-01-21 07:48:00,
2013-01-21 02:53:00,29.1,13.2,30.09,North,0,0.0,0.0,51,0.00,,OVC,0.00,VWS V14.00,2013-01-21 07:53:00,
2013-01-21 02:58:00,29.1,13.7,30.09,North,0,0.0,0.0,52,0.00,,OVC,0.00,VWS V14.00,2013-01-21 07:58:00,
2013-01-21 03:03:00,29.1,13.7,30.09,North,0,0.0,0.0,52,0.00,,OVC,0.00,VWS V14.00,2013-01-21 08:03:00,
2013-01-21 03:08:00,28.9,13.5,30.09,WNW,292,0.0,0.0,52,0.00,,OVC,0.00,VWS V14.00,2013-01-21 08:08:00,
2013-01-21 03:13:00,28.9,13.9,30.09,WNW,292,0.0,0.0,53,0.00,,OVC,0.00,VWS V14.00,2013-01-21 08:13:00,
2013-01-21 03:18:00,28.9,13.5,30.09,West,270,0.0,0.0,52,0.00,,OVC,0.00,VWS V14.00,2013-01-21 08:18:00,
2013-01-21 03:23:00,28.9,13.1,30.09,North,0,0.6,0.6,51,0.00,,OVC,0.00,VWS V14.00,2013-01-21 08:23:00,
2013-01-21 03:28:00,28.9,12.6,30.09,NNW,338,0.0,0.0,50,0.00,,OVC,0.00,VWS V14.00,2013-01-21 08:28:00,
2013-01-21 03:33:00,28.7,12.9,30.10,NNW,338,0.0,0.0,51,0.00,,OVC,0.00,VWS V14.00,2013-01-21 08:33:00,
2013-01-21 03:38:00,28.7,12.4,30.10,NNW,338,0.0,0.0,50,0.00,,OVC,0.00,VWS V14.00,2013-01-21 08:38:00,
2013-01-21 03:43:00,28.7,12.4,30.10,NNW,338,0.0,0.0,50,0.00,,OVC,0.00,VWS V14.00,2013-01-21 08:43:00,
2013-01-21 03:48:00,28.7,12.4,30.10,North,0,0.0,0.0,50,0.00,,OVC,0.00,VWS V14.00,2013-01-21 08:48:00,
2013-01-21 03:53:00,28.7,12.4,30.09,NNW,338,0.0,0.0,50,0.00,,OVC,0.00,VWS V14.00,2013-01-21 08:53:00,
2013-01-21 03:58:00,28.7,12.4,30.09,NW,315,0.0,0.0,50,0.00,,OVC,0.00,VWS V14.00,2013-01-21 08:58:00,
2013-01-21 04:03:00,28.7,12.4,30.09,NNE,22,0.0,0.0,50,0.00,,OVC,0.00,VWS V14.00,2013-01-21 09:03:00,
2013-01-21 04:08:00,28.7,12.4,30.09,NNE,22,0.0,0.0,50,0.00,,OVC,0.00,VWS V14.00,2013-01-21 09:08:00,
2013-01-21 04:13:00,28.7,12.0,30.09,North,0,0.0,0.0,49,0.00,,OVC,0.00,VWS V14.00,2013-01-21 09:13:00,
2013-01-21 04:18:00,28.7,12.0,30.09,NW,315,0.0,0.0,49,0.00,,OVC,0.00,VWS V14.00,2013-01-21 09:18:00,
2013-01-21 04:23:00,28.7,12.0,30.09,NNE,22,0.0,0.0,49,0.00,,OVC,0.00,VWS V14.00,2013-01-21 09:23:00,
2013-01-21 04:28:00,28.7,12.0,30.09,NNW,338,0.0,0.0,49,0.00,,OVC,0.00,VWS V14.00,2013-01-21 09:28:00,
2013-01-21 04:33:00,28.5,12.2,30.09,NNE,22,0.0,0.0,50,0.00,,OVC,0.00,VWS V14.00,2013-01-21 09:33:00,
2013-01-21 04:38:00,28.5,12.2,30.09,North,0,0.0,0.0,50,0.00,,OVC,0.00,VWS V14.00,2013-01-21 09:38:00,
2013-01-21 04:43:00,28.5,12.2,30.09,North,0,0.0,0.0,50,0.00,,OVC,0.00,VWS V14.00,2013-01-21 09:43:00,
2013-01-21 04:48:00,28.5,12.2,30.09,North,0,0.0,0.0,50,0.00,,OVC,0.00,VWS V14.00,2013-01-21 09:48:00,
2013-01-21 04:53:00,28.5,12.2,30.09,North,0,0.0,0.0,50,0.00,,OVC,0.00,VWS V14.00,2013-01-21 09:53:00,
2013-01-21 04:58:00,28.5,12.2,30.08,North,0,0.0,0.0,50,0.00,,OVC,0.00,VWS V14.00,2013-01-21 09:58:00,
2013-01-21 05:03:00,28.5,12.7,30.09,NNW,338,0.0,0.0,51,0.00,,OVC,0.00,VWS V14.00,2013-01-21 10:03:00,
2013-01-21 05:08:00,28.5,12.7,30.08,NNW,338,0.0,0.0,51,0.00,,OVC,0.00,VWS V14.00,2013-01-21 10:08:00,
2013-01-21 05:13:00,28.5,13.1,30.09,NNW,338,0.0,0.0,52,0.00,,OVC,0.00,VWS V14.00,2013-01-21 10:13:00,
2013-01-21 05:18:00,28.5,13.1,30.09,NNW,338,0.0,0.0,52,0.00,,OVC,0.00,VWS V14.00,2013-01-21 10:18:00,
2013-01-21 05:23:00,28.5,13.1,30.09,NNW,338,0.0,0.0,52,0.00,,OVC,0.00,VWS V14.00,2013-01-21 10:23:00,
2013-01-21 05:28:00,28.5,13.1,30.09,WNW,292,0.0,0.0,52,0.00,,OVC,0.00,VWS V14.00,2013-01-21 10:28:00,
2013-01-21 05:33:00,28.5,13.6,30.09,WNW,292,0.0,0.0,53,0.00,,OVC,0.00,VWS V14.00,2013-01-21 10:33:00,
2013-01-21 05:38:00,28.5,13.6,30.09,WNW,292,0.0,0.0,53,0.00,,OVC,0.00,VWS V14.00,2013-01-21 10:38:00,
2013-01-21 05:43:00,28.5,14.0,30.09,WNW,292,0.0,0.0,54,0.00,,OVC,0.00,VWS V14.00,2013-01-21 10:43:00,
2013-01-21 05:48:00,28.5,14.4,30.09,WNW,292,0.0,0.0,55,0.00,,OVC,0.00,VWS V14.00,2013-01-21 10:48:00,
2013-01-21 05:53:00,28.5,14.0,30.09,WNW,292,0.0,0.0,54,0.00,,OVC,0.00,VWS V14.00,2013-01-21 10:53:00,
2013-01-21 05:58:00,28.4,13.9,30.09,WNW,292,0.0,0.0,54,0.00,,OVC,0.00,VWS V14.00,2013-01-21 10:58:00,
2013-01-21 06:03:00,28.2,13.7,30.09,WNW,292,0.0,0.0,54,0.00,,OVC,0.00,VWS V14.00,2013-01-21 11:03:00,
2013-01-21 06:08:00,28.2,13.3,30.09,WNW,292,0.0,0.0,53,0.00,,OVC,0.00,VWS V14.00,2013-01-21 11:08:00,
2013-01-21 06:13:00,28.2,13.3,30.09,WNW,292,0.0,0.0,53,0.00,,OVC,0.00,VWS V14.00,2013-01-21 11:13:00,
2013-01-21 06:18:00,28.2,13.3,30.09,NW,315,0.0,0.0,53,0.00,,OVC,0.00,VWS V14.00,2013-01-21 11:18:00,
2013-01-21 06:23:00,28.2,13.3,30.09,WNW,292,0.0,0.0,53,0.00,,OVC,0.00,VWS V14.00,2013-01-21 11:23:00,
2013-01-21 06:28:00,28.0,13.1,30.09,WNW,292,0.0,0.0,53,0.00,,OVC,0.00,VWS V14.00,2013-01-21 11:28:00,
2013-01-21 06:33:00,28.0,12.7,30.09,North,0,0.0,0.0,52,0.00,,OVC,0.00,VWS V14.00,2013-01-21 11:33:00,
2013-01-21 06:38:00,28.0,13.5,30.09,North,0,0.0,0.0,54,0.00,,OVC,0.00,VWS V14.00,2013-01-21 11:38:00,
2013-01-21 06:43:00,28.0,13.5,30.09,North,0,0.0,0.0,54,0.00,,OVC,0.00,VWS V14.00,2013-01-21 11:43:00,
2013-01-21 06:48:00,28.0,12.7,30.09,North,0,0.0,0.0,52,0.00,,OVC,0.00,VWS V14.00,2013-01-21 11:48:00,
2013-01-21 06:53:00,27.8,12.9,30.09,NW,315,0.0,0.0,53,0.00,,OVC,0.00,VWS V14.00,2013-01-21 11:53:00,
2013-01-21 06:58:00,27.6,12.7,30.09,WNW,292,0.0,0.0,53,0.00,,OVC,0.00,VWS V14.00,2013-01-21 11:58:00,
2013-01-21 07:03:00,27.5,12.6,30.09,WNW,292,0.0,0.0,53,0.00,,OVC,0.00,VWS V14.00,2013-01-21 12:03:00,
2013-01-21 07:08:00,27.5,13.1,30.10,West,270,0.0,0.0,54,0.00,,OVC,0.00,VWS V14.00,2013-01-21 12:08:00,
2013-01-21 07:13:00,27.3,12.4,30.10,West,270,0.0,0.0,53,0.00,,OVC,0.00,VWS V14.00,2013-01-21 12:13:00,
2013-01-21 07:18:00,27.3,12.4,30.10,WNW,292,0.0,0.0,53,0.00,,OVC,0.00,VWS V14.00,2013-01-21 12:18:00,
2013-01-21 07:23:00,27.3,13.3,30.10,WNW,292,0.0,0.0,55,0.00,,OVC,0.00,VWS V14.00,2013-01-21 12:23:00,
2013-01-21 07:28:00,27.5,13.1,30.10,WNW,292,0.0,0.0,54,0.00,,OVC,0.00,VWS V14.00,2013-01-21 12:28:00,
2013-01-21 07:33:00,27.6,13.6,30.10,WNW,292,0.0,0.0,55,0.00,,OVC,0.00,VWS V14.00,2013-01-21 12:33:00,
2013-01-21 07:38:00,27.6,14.0,30.10,WNW,292,0.0,0.0,56,0.00,,OVC,0.00,VWS V14.00,2013-01-21 12:38:00,
2013-01-21 07:43:00,28.0,14.3,30.10,WNW,292,0.0,0.0,56,0.00,,OVC,0.00,VWS V14.00,2013-01-21 12:43:00,
2013-01-21 07:48:00,28.0,13.5,30.10,WNW,292,0.0,0.0,54,0.00,,OVC,0.00,VWS V14.00,2013-01-21 12:48:00,
2013-01-21 07:53:00,28.2,14.1,30.10,WNW,292,0.0,0.0,55,0.00,,OVC,0.00,VWS V14.00,2013-01-21 12:53:00,
2013-01-21 07:58:00,28.5,14.4,30.10,WNW,292,0.0,0.0,55,0.00,,OVC,0.00,VWS V14.00,2013-01-21 12:58:00,
2013-01-21 08:03:00,28.7,14.6,30.10,WNW,292,0.0,0.0,55,0.00,,OVC,0.00,VWS V14.00,2013-01-21 13:03:00,
2013-01-21 08:08:00,28.7,13.8,30.10,NE,45,0.0,0.0,53,0.00,,OVC,0.00,VWS V14.00,2013-01-21 13:08:00,
2013-01-21 08:13:00,29.1,14.1,30.11,NW,315,0.0,0.0,53,0.00,,OVC,0.00,VWS V14.00,2013-01-21 13:13:00,
2013-01-21 08:18:00,29.1,13.7,30.11,WNW,292,0.0,0.0,52,0.00,,OVC,0.00,VWS V14.00,2013-01-21 13:18:00,
2013-01-21 08:23:00,29.8,14.8,30.11,WNW,292,0.0,0.0,53,0.00,,OVC,0.00,VWS V14.00,2013-01-21 13:23:00,
2013-01-21 08:28:00,30.0,14.5,30.11,West,270,0.0,0.0,52,0.00,,OVC,0.00,VWS V14.00,2013-01-21 13:28:00,
2013-01-21 08:33:00,30.3,14.4,30.10,WNW,292,0.0,0.0,51,0.00,,OVC,0.00,VWS V14.00,2013-01-21 13:33:00,
2013-01-21 08:38:00,30.5,14.1,30.10,North,0,0.0,0.0,50,0.00,,OVC,0.00,VWS V14.00,2013-01-21 13:38:00,
2013-01-21 08:43:00,30.7,13.8,30.10,West,270,0.0,0.0,49,0.00,,OVC,0.00,VWS V14.00,2013-01-21 13:43:00,
2013-01-21 08:48:00,31.2,13.8,30.10,NNE,22,0.2,0.2,48,0.00,,OVC,0.00,VWS V14.00,2013-01-21 13:48:00,
2013-01-21 08:53:00,31.2,14.3,30.11,WNW,292,0.0,0.0,49,0.00,,OVC,0.00,VWS V14.00,2013-01-21 13:53:00,
2013-01-21 08:58:00,31.8,14.4,30.11,NW,315,0.0,0.0,48,0.00,,OVC,0.00,VWS V14.00,2013-01-21 13:58:00,
2013-01-21 09:03:00,32.1,15.1,30.11,WNW,292,0.0,0.0,49,0.00,,OVC,0.00,VWS V14.00,2013-01-21 14:03:00,
2013-01-21 09:08:00,32.7,14.7,30.11,NNE,22,0.0,0.0,47,0.00,,OVC,0.00,VWS V14.00,2013-01-21 14:08:00,
2013-01-21 09:13:00,32.7,14.7,30.10,NNE,22,0.0,0.0,47,0.00,,OVC,0.00,VWS V14.00,2013-01-21 14:13:00,
2013-01-21 09:18:00,32.7,14.2,30.10,NNE,22,0.0,0.0,46,0.00,,OVC,0.00,VWS V14.00,2013-01-21 14:18:00,
2013-01-21 09:23:00,33.0,14.5,30.10,WNW,292,0.0,0.0,46,0.00,,OVC,0.00,VWS V14.00,2013-01-21 14:23:00,
2013-01-21 09:27:00,33.0,14.5,30.10,NW,315,0.0,0.0,46,0.00,,OVC,0.00,VWS V14.00,2013-01-21 14:27:00,
2013-01-21 09:33:00,33.0,14.5,30.10,WNW,292,0.0,0.0,46,0.00,,OVC,0.00,VWS V14.00,2013-01-21 14:33:00,
2013-01-21 09:38:00,33.2,15.2,30.11,West,270,0.0,0.0,47,0.00,,OVC,0.00,VWS V14.00,2013-01-21 14:38:00,
2013-01-21 09:43:00,33.6,15.0,30.11,SW,225,0.0,0.0,46,0.00,,OVC,0.00,VWS V14.00,2013-01-21 14:43:00,
2013-01-21 09:48:00,33.8,15.7,30.11,WSW,248,0.0,0.0,47,0.00,,OVC,0.00,VWS V14.00,2013-01-21 14:48:00,
2013-01-21 09:53:00,33.9,16.3,30.11,WSW,248,0.0,0.0,48,0.00,,OVC,0.00,VWS V14.00,2013-01-21 14:53:00,
2013-01-21 09:58:00,34.3,16.7,30.11,West,270,0.0,0.0,48,0.00,,OVC,0.00,VWS V14.00,2013-01-21 14:58:00,
2013-01-21 10:03:00,34.8,17.1,30.10,West,270,0.0,0.0,48,0.00,,OVC,0.00,VWS V14.00,2013-01-21 15:03:00,
2013-01-21 10:08:00,35.2,17.5,30.10,West,270,0.0,0.0,48,0.00,,OVC,0.00,VWS V14.00,2013-01-21 15:08:00,
2013-01-21 10:13:00,35.4,17.2,30.10,West,270,0.0,0.0,47,0.00,,OVC,0.00,VWS V14.00,2013-01-21 15:13:00,
2013-01-21 10:18:00,35.4,17.2,30.10,West,270,0.0,0.0,47,0.00,,OVC,0.00,VWS V14.00,2013-01-21 15:18:00,
2013-01-21 10:23:00,35.4,16.7,30.09,West,270,0.0,0.0,46,0.00,,OVC,0.00,VWS V14.00,2013-01-21 15:23:00,
2013-01-21 10:27:00,35.7,17.5,30.09,WSW,248,0.0,0.0,47,0.00,,OVC,0.00,VWS V14.00,2013-01-21 15:27:00,
2013-01-21 10:33:00,36.3,18.0,30.09,WSW,248,0.0,0.0,47,0.00,,OVC,0.00,VWS V14.00,2013-01-21 15:33:00,
2013-01-21 10:37:00,36.3,17.5,30.09,WSW,248,0.0,0.0,46,0.00,,OVC,0.00,VWS V14.00,2013-01-21 15:37:00,
2013-01-21 10:42:00,36.3,17.0,30.09,SW,225,0.0,0.0,45,0.00,,OVC,0.00,VWS V14.00,2013-01-21 15:42:00,
2013-01-21 10:47:00,35.7,15.9,30.09,SW,225,0.0,0.0,44,0.00,,OVC,0.00,VWS V14.00,2013-01-21 15:47:00,
2013-01-21 10:52:00,36.3,17.5,30.08,SW,225,0.0,0.0,46,0.00,,OVC,0.00,VWS V14.00,2013-01-21 15:52:00,
2013-01-21 10:57:00,36.6,16.8,30.08,SSW,202,0.0,0.0,44,0.00,,OVC,0.00,VWS V14.00,2013-01-21 15:57:00,
2013-01-21 11:02:00,37.2,17.3,30.08,South,180,0.0,0.0,44,0.00,,OVC,0.00,VWS V14.00,2013-01-21 16:02:00,
2013-01-21 11:07:00,37.0,17.1,30.07,WSW,248,0.0,0.0,44,0.00,,OVC,0.00,VWS V14.00,2013-01-21 16:07:00,
2013-01-21 11:12:00,36.8,17.0,30.07,SSE,158,0.0,0.0,44,0.00,,OVC,0.00,VWS V14.00,2013-01-21 16:12:00,
2013-01-21 11:17:00,36.5,16.7,30.07,WSW,248,1.5,1.5,44,0.00,,OVC,0.00,VWS V14.00,2013-01-21 16:17:00,
2013-01-21 11:22:00,36.8,17.0,30.06,West,270,0.0,0.0,44,0.00,,OVC,0.00,VWS V14.00,2013-01-21 16:22:00,
2013-01-21 11:27:00,36.6,16.2,30.06,SW,225,0.0,0.0,43,0.00,,OVC,0.00,VWS V14.00,2013-01-21 16:27:00,
2013-01-21 11:32:00,36.1,15.8,30.05,SW,225,0.0,0.0,43,0.00,,OVC,0.00,VWS V14.00,2013-01-21 16:32:00,
2013-01-21 11:37:00,36.3,17.0,30.05,SW,225,0.0,0.0,45,0.00,,OVC,0.00,VWS V14.00,2013-01-21 16:37:00,
2013-01-21 11:42:00,36.6,17.3,30.05,WSW,248,0.0,0.0,45,0.00,,OVC,0.00,VWS V14.00,2013-01-21 16:42:00,
2013-01-21 11:47:00,36.6,17.3,30.04,WSW,248,0.0,0.0,45,0.00,,OVC,0.00,VWS V14.00,2013-01-21 16:47:00,
2013-01-21 11:52:00,37.2,17.8,30.04,WSW,248,0.0,0.0,45,0.00,,OVC,0.00,VWS V14.00,2013-01-21 16:52:00,
2013-01-21 11:57:00,37.2,17.3,30.03,WSW,248,0.0,0.0,44,0.00,,OVC,0.00,VWS V14.00,2013-01-21 16:57:00,
2013-01-21 12:02:00,37.5,18.1,30.02,SW,225,3.1,3.1,45,0.00,,OVC,0.00,VWS V14.00,2013-01-21 17:02:00,
2013-01-21 12:07:00,37.2,16.8,30.02,WSW,248,0.0,0.0,43,0.00,,OVC,0.00,VWS V14.00,2013-01-21 17:07:00,
2013-01-21 12:12:00,37.2,16.8,30.02,SW,225,0.0,0.0,43,0.00,,OVC,0.00,VWS V14.00,2013-01-21 17:12:00,
2013-01-21 12:17:00,37.5,18.1,30.01,WSW,248,0.0,0.0,45,0.00,,OVC,0.00,VWS V14.00,2013-01-21 17:17:00,
2013-01-21 12:22:00,37.5,17.0,30.00,SW,225,0.4,0.4,43,0.00,,OVC,0.00,VWS V14.00,2013-01-21 17:22:00,
2013-01-21 12:27:00,37.7,17.8,30.00,SW,225,0.0,0.0,44,0.00,,OVC,0.00,VWS V14.00,2013-01-21 17:27:00,
2013-01-21 12:32:00,37.9,17.4,30.00,SW,225,1.7,2.9,43,0.00,,OVC,0.00,VWS V14.00,2013-01-21 17:32:00,
2013-01-21 12:37:00,37.9,18.0,30.00,SW,225,0.0,0.8,44,0.00,,OVC,0.00,VWS V14.00,2013-01-21 17:37:00,
2013-01-21 12:42:00,37.4,16.4,30.00,SSW,202,0.0,0.0,42,0.00,,OVC,0.00,VWS V14.00,2013-01-21 17:42:00,
2013-01-21 12:47:00,37.0,16.1,30.00,WSW,248,0.0,0.0,42,0.00,,OVC,0.00,VWS V14.00,2013-01-21 17:47:00,
2013-01-21 12:52:00,37.0,16.1,29.99,SW,225,0.0,0.0,42,0.00,,OVC,0.00,VWS V14.00,2013-01-21 17:52:00,
2013-01-21 12:57:00,37.0,16.6,29.99,WSW,248,0.0,0.0,43,0.00,,OVC,0.00,VWS V14.00,2013-01-21 17:57:00,
2013-01-21 13:02:00,37.4,17.5,29.99,WSW,248,2.4,2.4,44,0.00,,OVC,0.00,VWS V14.00,2013-01-21 18:02:00,
2013-01-21 13:07:00,37.5,17.0,29.99,SSW,202,0.0,0.0,43,0.00,,OVC,0.00,VWS V14.00,2013-01-21 18:07:00,
2013-01-21 13:12:00,37.4,17.0,29.98,WSW,248,0.4,0.4,43,0.00,,OVC,0.00,VWS V14.00,2013-01-21 18:12:00,
2013-01-21 13:17:00,37.5,17.6,29.99,SW,225,0.0,0.0,44,0.00,,OVC,0.00,VWS V14.00,2013-01-21 18:17:00,
2013-01-21 13:22:00,37.7,17.2,29.98,SW,225,0.0,0.0,43,0.00,,OVC,0.00,VWS V14.00,2013-01-21 18:22:00,
2013-01-21 13:27:00,37.7,17.8,29.98,SW,225,0.0,0.0,44,0.00,,OVC,0.00,VWS V14.00,2013-01-21 18:27:00,
2013-01-21 13:32:00,37.7,17.8,29.98,SW,225,0.0,0.0,44,0.00,,OVC,0.00,VWS V14.00,2013-01-21 18:32:00,
2013-01-21 13:37:00,37.2,16.8,29.98,South,180,0.0,0.0,43,0.00,,OVC,0.00,VWS V14.00,2013-01-21 18:37:00,
2013-01-21 13:42:00,37.0,17.1,29.98,SW,225,0.4,0.4,44,0.00,,OVC,0.00,VWS V14.00,2013-01-21 18:42:00,
2013-01-21 13:47:00,36.5,16.1,29.97,West,270,0.0,0.0,43,0.00,,OVC,0.00,VWS V14.00,2013-01-21 18:47:00,
2013-01-21 13:52:00,36.3,17.0,29.97,SW,225,0.0,0.0,45,0.00,,OVC,0.00,VWS V14.00,2013-01-21 18:52:00,
2013-01-21 13:57:00,36.3,17.0,29.97,SSW,202,0.0,0.0,45,0.00,,OVC,0.00,VWS V14.00,2013-01-21 18:57:00,
2013-01-21 14:02:00,35.7,16.5,29.97,WSW,248,0.0,0.0,45,0.00,,OVC,0.00,VWS V14.00,2013-01-21 19:02:00,
2013-01-21 14:07:00,35.7,17.0,29.97,SW,225,0.0,0.0,46,0.00,,OVC,0.00,VWS V14.00,2013-01-21 19:07:00,
2013-01-21 14:12:00,35.7,18.0,29.97,WSW,248,0.0,0.6,48,0.00,,OVC,0.00,VWS V14.00,2013-01-21 19:12:00,
2013-01-21 14:17:00,35.7,18.4,29.97,SW,225,2.0,2.0,49,0.00,,OVC,0.00,VWS V14.00,2013-01-21 19:17:00,
2013-01-21 14:22:00,35.7,18.9,29.96,SW,225,0.0,0.0,50,0.00,,OVC,0.00,VWS V14.00,2013-01-21 19:22:00,
2013-01-21 14:27:00,36.1,19.3,29.96,SW,225,0.0,0.0,50,0.00,,OVC,0.00,VWS V14.00,2013-01-21 19:27:00,
2013-01-21 14:32:00,36.1,18.8,29.96,WSW,248,0.0,0.0,49,0.00,,OVC,0.00,VWS V14.00,2013-01-21 19:32:00,
2013-01-21 14:37:00,36.1,18.8,29.95,SSE,158,0.0,0.0,49,0.00,,OVC,0.00,VWS V14.00,2013-01-21 19:37:00,
2013-01-21 14:42:00,36.3,19.5,29.95,WSW,248,0.0,0.0,50,0.00,,OVC,0.00,VWS V14.00,2013-01-21 19:42:00,
2013-01-21 14:47:00,36.1,19.3,29.95,WSW,248,0.0,0.0,50,0.00,,OVC,0.00,VWS V14.00,2013-01-21 19:47:00,
2013-01-21 14:52:00,36.3,19.9,29.95,West,270,2.0,2.0,51,0.00,,OVC,0.00,VWS V14.00,2013-01-21 19:52:00,
2013-01-21 14:57:00,35.9,20.5,29.94,WSW,248,0.0,0.0,53,0.00,,OVC,0.00,VWS V14.00,2013-01-21 19:57:00,
2013-01-21 15:02:00,35.7,20.7,29.94,SW,225,0.0,0.0,54,0.00,,OVC,0.00,VWS V14.00,2013-01-21 20:02:00,
2013-01-21 15:07:00,35.7,21.6,29.94,SW,225,0.0,0.0,56,0.00,,OVC,0.00,VWS V14.00,2013-01-21 20:07:00,
2013-01-21 15:12:00,35.4,21.3,29.94,SSW,202,0.0,0.0,56,0.00,,OVC,0.00,VWS V14.00,2013-01-21 20:12:00,
2013-01-21 15:17:00,35.2,21.1,29.93,SSW,202,0.0,0.0,56,0.00,,OVC,0.00,VWS V14.00,2013-01-21 20:17:00,
2013-01-21 15:22:00,34.8,21.1,29.93,South,180,0.0,0.0,57,0.00,,OVC,0.00,VWS V14.00,2013-01-21 20:22:00,
2013-01-21 15:27:00,34.7,21.5,29.93,SW,225,0.8,0.8,58,0.00,,OVC,0.00,VWS V14.00,2013-01-21 20:27:00,
2013-01-21 15:32:00,35.2,22.3,29.93,SW,225,0.0,0.0,59,0.00,,OVC,0.00,VWS V14.00,2013-01-21 20:32:00,
2013-01-21 15:37:00,35.2,21.9,29.93,South,180,0.0,0.0,58,0.00,,OVC,0.00,VWS V14.00,2013-01-21 20:37:00,
2013-01-21 15:42:00,34.8,21.5,29.92,SSW,202,0.0,0.0,58,0.00,,OVC,0.00,VWS V14.00,2013-01-21 20:42:00,
2013-01-21 15:47:00,34.8,22.0,29.91,SSW,202,0.0,0.0,59,0.00,,OVC,0.00,VWS V14.00,2013-01-21 20:47:00,
2013-01-21 15:52:00,34.8,21.5,29.91,South,180,0.0,0.0,58,0.00,,OVC,0.00,VWS V14.00,2013-01-21 20:52:00,
2013-01-21 15:57:00,34.5,21.3,29.91,South,180,0.0,0.0,58,0.00,,OVC,0.00,VWS V14.00,2013-01-21 20:57:00,
2013-01-21 16:02:00,34.3,21.5,29.90,South,180,0.0,0.0,59,0.00,,OVC,0.00,VWS V14.00,2013-01-21 21:02:00,
2013-01-21 16:07:00,34.1,20.9,29.90,South,180,0.0,0.0,58,0.00,,OVC,0.00,VWS V14.00,2013-01-21 21:07:00,
2013-01-21 16:12:00,33.6,20.8,29.90,SE,135,0.0,0.0,59,0.00,,OVC,0.00,VWS V14.00,2013-01-21 21:12:00,
2013-01-21 16:17:00,33.4,20.6,29.89,SE,135,0.0,0.0,59,0.00,,OVC,0.00,VWS V14.00,2013-01-21 21:17:00,
2013-01-21 16:22:00,33.2,20.0,29.89,SE,135,0.0,0.0,58,0.00,,OVC,0.00,VWS V14.00,2013-01-21 21:22:00,
2013-01-21 16:27:00,33.4,20.2,29.89,SE,135,0.0,0.0,58,0.00,,OVC,0.00,VWS V14.00,2013-01-21 21:27:00,
2013-01-21 16:32:00,33.4,20.6,29.88,SE,135,0.0,0.0,59,0.00,,OVC,0.00,VWS V14.00,2013-01-21 21:32:00,
2013-01-21 16:37:00,33.6,20.8,29.88,SE,135,0.0,0.0,59,0.00,,OVC,0.00,VWS V14.00,2013-01-21 21:37:00,
2013-01-21 16:42:00,33.6,20.8,29.88,SE,135,0.0,0.0,59,0.00,,OVC,0.00,VWS V14.00,2013-01-21 21:42:00,
2013-01-21 16:47:00,33.6,20.8,29.88,SE,135,0.0,0.0,59,0.00,,OVC,0.00,VWS V14.00,2013-01-21 21:47:00,
2013-01-21 16:52:00,33.6,21.2,29.88,SE,135,0.0,0.0,60,0.00,,OVC,0.00,VWS V14.00,2013-01-21 21:52:00,
2013-01-21 16:57:00,33.6,21.6,29.88,SE,135,0.0,0.0,61,0.00,,OVC,0.00,VWS V14.00,2013-01-21 21:57:00,
2013-01-21 17:02:00,33.8,21.8,29.88,SE,135,0.0,0.0,61,0.00,,OVC,0.00,VWS V14.00,2013-01-21 22:02:00,
2013-01-21 17:07:00,33.9,21.9,29.88,SE,135,0.0,0.0,61,0.00,,OVC,0.00,VWS V14.00,2013-01-21 22:07:00,
2013-01-21 17:12:00,33.9,21.5,29.88,SE,135,0.0,0.0,60,0.00,,OVC,0.00,VWS V14.00,2013-01-21 22:12:00,
2013-01-21 17:17:00,33.9,21.1,29.88,SE,135,0.0,0.0,59,0.00,,OVC,0.00,VWS V14.00,2013-01-21 22:17:00,
2013-01-21 17:22:00,33.9,21.1,29.87,SE,135,0.0,0.0,59,0.00,,OVC,0.00,VWS V14.00,2013-01-21 22:22:00,
2013-01-21 17:27:00,33.8,21.0,29.87,SE,135,0.0,0.0,59,0.00,,OVC,0.00,VWS V14.00,2013-01-21 22:27:00,
2013-01-21 17:32:00,33.6,20.4,29.87,ESE,112,0.0,0.0,58,0.00,,OVC,0.00,VWS V14.00,2013-01-21 22:32:00,
2013-01-21 17:37:00,33.6,20.8,29.88,ESE,112,0.0,0.0,59,0.00,,OVC,0.00,VWS V14.00,2013-01-21 22:37:00,
2013-01-21 17:42:00,33.6,20.8,29.88,ESE,112,0.0,0.0,59,0.00,,OVC,0.00,VWS V14.00,2013-01-21 22:42:00,
2013-01-21 17:47:00,33.6,20.8,29.88,ESE,112,0.0,0.0,59,0.00,,OVC,0.00,VWS V14.00,2013-01-21 22:47:00,
2013-01-21 17:52:00,33.6,20.8,29.88,NE,45,0.0,0.0,59,0.00,,OVC,0.00,VWS V14.00,2013-01-21 22:52:00,
2013-01-21 17:57:00,33.6,20.8,29.88,NE,45,0.0,0.0,59,0.00,,OVC,0.00,VWS V14.00,2013-01-21 22:57:00,
2013-01-21 18:02:00,33.6,20.8,29.88,NNE,22,0.0,0.0,59,0.00,,OVC,0.00,VWS V14.00,2013-01-21 23:02:00,
2013-01-21 18:07:00,33.6,20.8,29.88,NNW,338,0.0,0.0,59,0.00,,OVC,0.00,VWS V14.00,2013-01-21 23:07:00,
2013-01-21 18:12:00,33.6,20.8,29.88,NNW,338,1.3,1.3,59,0.00,,OVC,0.00,VWS V14.00,2013-01-21 23:12:00,
2013-01-21 18:17:00,33.4,20.6,29.88,NNW,338,0.0,0.0,59,0.00,,OVC,0.00,VWS V14.00,2013-01-21 23:17:00,
2013-01-21 18:22:00,33.4,20.6,29.88,NNE,22,0.0,0.0,59,0.00,,OVC,0.00,VWS V14.00,2013-01-21 23:22:00,
2013-01-21 18:27:00,33.4,20.6,29.87,NE,45,0.0,0.0,59,0.00,,OVC,0.00,VWS V14.00,2013-01-21 23:27:00,
2013-01-21 18:32:00,33.2,20.8,29.87,NNE,22,0.0,0.0,60,0.00,,OVC,0.00,VWS V14.00,2013-01-21 23:32:00,
2013-01-21 18:37:00,33.2,20.8,29.86,NNE,22,0.0,0.0,60,0.00,,OVC,0.00,VWS V14.00,2013-01-21 23:37:00,
2013-01-21 18:42:00,33.2,20.8,29.86,NNW,338,0.0,0.0,60,0.00,,OVC,0.00,VWS V14.00,2013-01-21 23:42:00,
2013-01-21 18:47:00,33.2,20.8,29.86,NNW,338,0.0,0.0,60,0.00,,OVC,0.00,VWS V14.00,2013-01-21 23:47:00,
2013-01-21 18:52:00,33.2,21.2,29.85,North,0,0.0,0.0,61,0.00,,OVC,0.00,VWS V14.00,2013-01-21 23:52:00,
2013-01-21 18:57:00,33.2,20.8,29.85,NNE,22,0.0,0.0,60,0.00,,OVC,0.00,VWS V14.00,2013-01-21 23:57:00,
2013-01-21 19:02:00,33.0,20.6,29.85,NNE,22,0.0,0.0,60,0.00,,OVC,0.00,VWS V14.00,2013-01-22 00:02:00,
2013-01-21 19:07:00,33.0,21.0,29.84,NNE,22,0.0,0.0,61,0.00,,OVC,0.00,VWS V14.00,2013-01-22 00:07:00,
2013-01-21 19:12:00,33.0,21.4,29.84,NE,45,0.0,0.0,62,0.00,,OVC,0.00,VWS V14.00,2013-01-22 00:12:00,
2013-01-21 19:17:00,33.0,21.4,29.84,NNE,22,0.0,0.0,62,0.00,,OVC,0.00,VWS V14.00,2013-01-22 00:17:00,
2013-01-21 19:22:00,33.0,21.4,29.84,North,0,0.0,0.0,62,0.00,,OVC,0.00,VWS V14.00,2013-01-22 00:22:00,
2013-01-21 19:27:00,33.0,21.4,29.85,NNE,22,0.0,0.0,62,0.00,,OVC,0.00,VWS V14.00,2013-01-22 00:27:00,
2013-01-21 19:32:00,32.9,21.3,29.84,North,0,1.1,1.1,62,0.00,,OVC,0.00,VWS V14.00,2013-01-22 00:32:00,
2013-01-21 19:37:00,32.7,21.5,29.84,North,0,0.0,0.0,63,0.00,,OVC,0.00,VWS V14.00,2013-01-22 00:37:00,
2013-01-21 19:42:00,32.7,21.5,29.84,North,0,0.0,0.0,63,0.00,,OVC,0.00,VWS V14.00,2013-01-22 00:42:00,
2013-01-21 19:47:00,32.7,21.9,29.85,NNE,22,0.0,0.0,64,0.00,,OVC,0.00,VWS V14.00,2013-01-22 00:47:00,
2013-01-21 19:52:00,32.5,22.1,29.85,North,0,0.0,0.0,65,0.00,,OVC,0.00,VWS V14.00,2013-01-22 00:52:00,
2013-01-21 19:57:00,32.1,22.0,29.86,North,0,4.6,4.6,66,0.00,,OVC,0.00,VWS V14.00,2013-01-22 00:57:00,
2013-01-21 20:02:00,32.1,22.8,29.86,SW,225,0.0,0.0,68,0.00,,OVC,0.00,VWS V14.00,2013-01-22 01:02:00,
2013-01-21 20:07:00,31.8,23.5,29.86,NNE,22,0.0,0.0,71,0.00,,OVC,0.00,VWS V14.00,2013-01-22 01:07:00,
2013-01-21 20:12:00,31.1,23.5,29.87,North,0,0.0,0.0,73,0.00,,OVC,0.00,VWS V14.00,2013-01-22 01:12:00,
2013-01-21 20:17:00,30.5,23.5,29.87,NNE,22,0.0,0.0,75,0.00,,OVC,0.00,VWS V14.00,2013-01-22 01:17:00,
2013-01-21 20:22:00,30.2,23.2,29.87,WNW,292,0.0,0.0,75,0.00,,OVC,0.00,VWS V14.00,2013-01-22 01:22:00,
2013-01-21 20:27:00,30.3,23.7,29.87,WNW,292,0.0,0.0,76,0.00,,OVC,0.00,VWS V14.00,2013-01-22 01:27:00,
2013-01-21 20:32:00,30.2,23.2,29.86,NW,315,0.0,0.0,75,0.00,,OVC,0.00,VWS V14.00,2013-01-22 01:32:00,
2013-01-21 20:37:00,30.3,23.7,29.87,NNE,22,0.0,0.0,76,0.00,,OVC,0.00,VWS V14.00,2013-01-22 01:37:00,
2013-01-21 20:42:00,30.5,23.9,29.88,West,270,0.0,0.0,76,0.00,,OVC,0.00,VWS V14.00,2013-01-22 01:42:00,
2013-01-21 20:47:00,30.3,24.0,29.88,North,0,0.0,0.0,77,0.00,,OVC,0.00,VWS V14.00,2013-01-22 01:47:00,
2013-01-21 20:52:00,30.2,24.2,29.87,North,0,0.0,0.0,78,0.00,,OVC,0.00,VWS V14.00,2013-01-22 01:52:00,
2013-01-21 20:57:00,30.0,24.0,29.86,NW,315,0.0,0.0,78,0.00,,OVC,0.00,VWS V14.00,2013-01-22 01:57:00,
2013-01-21 21:02:00,30.0,24.0,29.87,West,270,0.0,0.0,78,0.00,,OVC,0.00,VWS V14.00,2013-01-22 02:02:00,
2013-01-21 21:07:00,30.0,24.0,29.87,NNE,22,0.0,0.0,78,0.00,,OVC,0.00,VWS V14.00,2013-01-22 02:07:00,
2013-01-21 21:12:00,30.0,24.3,29.87,West,270,0.0,0.0,79,0.00,,OVC,0.00,VWS V14.00,2013-01-22 02:12:00,
2013-01-21 21:17:00,29.6,23.6,29.87,WSW,248,0.0,0.0,78,0.00,,OVC,0.00,VWS V14.00,2013-01-22 02:17:00,
2013-01-21 21:22:00,29.4,23.4,29.86,NNE,22,0.0,0.0,78,0.00,,OVC,0.00,VWS V14.00,2013-01-22 02:22:00,
2013-01-21 21:27:00,29.3,23.3,29.87,NNE,22,0.0,0.0,78,0.00,,OVC,0.00,VWS V14.00,2013-01-22 02:27:00,
2013-01-21 21:32:00,29.1,23.1,29.87,North,0,0.0,0.0,78,0.00,,OVC,0.00,VWS V14.00,2013-01-22 02:32:00,
2013-01-21 21:37:00,29.1,22.8,29.88,NNE,22,0.0,0.0,77,0.00,,OVC,0.00,VWS V14.00,2013-01-22 02:37:00,
2013-01-21 21:42:00,29.1,22.8,29.87,NW,315,0.0,0.0,77,0.00,,OVC,0.00,VWS V14.00,2013-01-22 02:42:00,
2013-01-21 21:47:00,29.1,22.8,29.87,WNW,292,0.0,0.0,77,0.00,,OVC,0.00,VWS V14.00,2013-01-22 02:47:00,
2013-01-21 21:52:00,29.3,23.0,29.87,NNE,22,0.0,0.0,77,0.00,,OVC,0.00,VWS V14.00,2013-01-22 02:52:00,
2013-01-21 21:57:00,29.3,23.0,29.87,NW,315,0.0,0.0,77,0.00,,OVC,0.00,VWS V14.00,2013-01-22 02:57:00,
2013-01-21 22:02:00,29.3,23.0,29.86,NNE,22,0.0,0.0,77,0.00,,OVC,0.00,VWS V14.00,2013-01-22 03:02:00,
2013-01-21 22:07:00,29.1,22.8,29.86,NNW,338,0.0,0.0,77,0.00,,OVC,0.00,VWS V14.00,2013-01-22 03:07:00,
2013-01-21 22:12:00,29.1,22.8,29.86,North,0,0.0,0.0,77,0.00,,OVC,0.00,VWS V14.00,2013-01-22 03:12:00,
2013-01-21 22:17:00,29.1,22.8,29.85,NNE,22,0.0,0.0,77,0.00,,OVC,0.00,VWS V14.00,2013-01-22 03:17:00,
2013-01-21 22:22:00,29.3,23.0,29.84,North,0,0.0,0.0,77,0.00,,OVC,0.00,VWS V14.00,2013-01-22 03:22:00,
2013-01-21 22:27:00,29.1,22.8,29.85,North,0,0.0,0.0,77,0.00,,OVC,0.00,VWS V14.00,2013-01-22 03:27:00,
2013-01-21 22:32:00,29.3,23.0,29.85,North,0,0.0,0.0,77,0.00,,OVC,0.00,VWS V14.00,2013-01-22 03:32:00,
2013-01-21 22:37:00,29.1,22.8,29.86,WNW,292,0.0,0.0,77,0.00,,OVC,0.00,VWS V14.00,2013-01-22 03:37:00,
2013-01-21 22:42:00,29.3,23.0,29.85,WNW,292,0.0,0.0,77,0.00,,OVC,0.00,VWS V14.00,2013-01-22 03:42:00,
2013-01-21 22:47:00,29.3,23.0,29.85,WNW,292,0.0,0.0,77,0.00,,OVC,0.00,VWS V14.00,2013-01-22 03:47:00,
2013-01-21 22:52:00,29.3,23.3,29.85,WNW,292,0.0,0.0,78,0.00,,OVC,0.00,VWS V14.00,2013-01-22 03:52:00,
2013-01-21 22:57:00,29.1,22.8,29.86,WNW,292,0.0,0.0,77,0.00,,OVC,0.00,VWS V14.00,2013-01-22 03:57:00,
2013-01-21 23:02:00,29.3,23.3,29.86,WNW,292,0.0,0.0,78,0.00,,OVC,0.00,VWS V14.00,2013-01-22 04:02:00,
2013-01-21 23:07:00,29.3,23.3,29.86,WNW,292,0.0,0.0,78,0.00,,OVC,0.00,VWS V14.00,2013-01-22 04:07:00,
2013-01-21 23:12:00,29.1,23.1,29.86,WNW,292,0.0,0.0,78,0.00,,OVC,0.00,VWS V14.00,2013-01-22 04:12:00,
2013-01-21 23:17:00,29.1,23.1,29.86,NW,315,0.0,0.0,78,0.00,,OVC,0.00,VWS V14.00,2013-01-22 04:17:00,
2013-01-21 23:22:00,28.9,22.6,29.85,NW,315,0.0,0.0,77,0.00,,OVC,0.00,VWS V14.00,2013-01-22 04:22:00,
2013-01-21 23:27:00,28.5,21.9,29.85,NNW,338,0.0,0.0,76,0.00,,OVC,0.00,VWS V14.00,2013-01-22 04:27:00,
2013-01-21 23:32:00,28.2,21.0,29.85,North,0,0.0,0.0,74,0.00,,OVC,0.00,VWS V14.00,2013-01-22 04:32:00,
2013-01-21 23:37:00,28.0,20.5,29.85,WNW,292,0.0,0.0,73,0.00,,OVC,0.00,VWS V14.00,2013-01-22 04:37:00,
2013-01-21 23:42:00,27.6,20.1,29.85,NW,315,0.0,0.0,73,0.00,,OVC,0.00,VWS V14.00,2013-01-22 04:42:00,
2013-01-21 23:47:00,27.3,19.8,29.85,NW,315,0.0,0.0,73,0.00,,OVC,0.00,VWS V14.00,2013-01-22 04:47:00,
2013-01-21 23:52:00,27.1,19.6,29.86,WNW,292,0.0,0.0,73,0.00,,OVC,0.00,VWS V14.00,2013-01-22 04:52:00,
2013-01-21 23:57:00,26.9,19.1,29.85,NW,315,0.0,0.0,72,0.00,,OVC,0.00,VWS V14.00,2013-01-22 04:57:00,